Location: Jodlow
(50.1500°N, 16.7500°E)
Time: 01:07:27
(UTC+02:00)

O/OREOS (USA 219) - Pass Details

Date: 30 March 2023
Orbit: 621 x 646 km, 72.0° (Epoch: 22 May)

Event Time Altitude Azimuth Distance (km) Brightness Sun altitude
Rises 05:07:15 0° 173° (S) 2,940 ? -14.3°
Reaches altitude 10° 05:09:49 10° 160° (SSE) 2,033 ? -14.0°
Maximum altitude 05:13:35 26° 104° (ESE) 1,268 ? -13.4°
Drops below altitude 10° 05:17:21 10° 49° (NE) 2,035 ? -12.8°
Sets 05:19:54 0° 37° (NE) 2,945 ? -12.5°
